Home > Weather > Sandpoint > Past weeks

Flag for U.S.A. Weather for the Past 2 Weeks in Sandpoint, Idaho, U.S.A.

Now
43 °F

Scattered clouds.


Feels Like: 43 °F
Forecast: 35 / 42 °F
Wind: No wind

Location: Sandpoint Airport

Current Time: Feb 11, 2016 at 5:33:04 PM

Latest Report: Feb 11, 2016 at 4:35 PM


Visibility: 10 mi

Pressure: 30.28 "Hg (28.01 "Hg at 636m altitude)

Humidity: 76%

Dew point: 36 °F

Location of SandpointLocation

Historic Weather in Sandpoint — Graph

°F

Sandpoint Temperature Yesterday

Maximum temperature yesterday: 36 °F (at 12:35 PM)
Minimum temperature yesterday: 27 °F (at 1:55 AM)
Average temperature yesterday: 31 °F

High & Low Weather Summary for the Past Weeks

 TemperatureHumidityPressure
High46 °F (Feb 9, 1:35 PM)100% (Jan 27, 4:15 PM)30.67 "Hg (Jan 27, 4:15 PM)
Low19 °F (Feb 3, 1:55 AM)57% (Feb 8, 12:55 PM)29.60 "Hg (Jan 29, 1:55 PM)
Average33 °F93%30.19 "Hg
* Reported Jan 27 4:15 PM — Feb 11 4:15 PM, Sandpoint, Weather by CustomWeather, © 2016

Note: Actual official high and low records may vary slightly from our data, if they occured in-between our weather recording intervals... More about our weather records

Advertising

Sandpoint Weather History for the Previous 24 Hours

 ConditionsComfort  
Time TempWeatherWind HumidityBarometerVisibility
4:15 PM
Thu, Feb 11
43 °FOvercast.No wind76%30.29 "Hg10 mi
3:55 PM45 °FOvercast.No wind71%30.29 "Hg10 mi
3:35 PM45 °FPartly sunny.No wind71%30.29 "Hg10 mi
2:55 PM45 °FScattered clouds.No wind71%30.28 "Hg10 mi
1:55 PM43 °FScattered clouds.No wind76%30.30 "Hg10 mi
1:15 PM43 °FSunny.6 mph76%30.30 "Hg10 mi
12:55 PM43 °FSunny.5 mph76%30.31 "Hg10 mi
12:35 PM41 °FSunny.No wind81%30.32 "Hg10 mi
12:15 PM37 °FSunny.No wind93%30.33 "Hg10 mi
11:55 AM36 °FSunny.No wind93%30.34 "Hg10 mi
11:35 AM36 °FSunny.No wind100%30.35 "Hg10 mi
11:15 AM36 °FSunny.No wind93%30.35 "Hg10 mi
10:55 AM36 °FSunny.No wind93%30.36 "Hg10 mi
10:15 AM34 °FOvercast.No wind100%30.36 "Hg10 mi
9:55 AM34 °FOvercast.No wind100%30.36 "Hg10 mi
9:15 AM32 °FIce fog.No wind100%30.36 "Hg4 mi
8:55 AM32 °FIce fog.No wind100%30.36 "Hg3 mi
8:15 AM32 °FIce fog.No wind100%30.36 "Hg3 mi
7:55 AM30 °FIce fog.No wind100%30.35 "Hg5 mi
7:35 AM30 °FCloudy.No wind100%30.33 "Hg7 mi
7:15 AM30 °FIce fog.No wind100%30.33 "Hg5 mi
6:55 AM28 °FIce fog.No wind100%30.32 "Hg5 mi
6:15 AM30 °FClear.No wind100%30.31 "Hg7 mi
5:55 AM30 °FIce fog.3 mph100%30.31 "Hg4 mi
5:35 AM30 °FIce fog.No wind100%30.31 "Hg5 mi
5:15 AM32 °FClear.No wind100%30.31 "Hg7 mi
4:55 AM32 °FClear.No wind100%30.31 "Hg10 mi
4:35 AM32 °FClear.5 mph100%30.31 "Hg10 mi
4:15 AM32 °FClear.9 mph100%30.30 "Hg10 mi
3:55 AM34 °FClear.7 mph100%30.29 "Hg10 mi
3:35 AM34 °FClear.7 mph100%30.30 "Hg10 mi
3:15 AM32 °FPassing clouds.7 mph100%30.30 "Hg10 mi
2:55 AM32 °FOvercast.6 mph100%30.31 "Hg10 mi
2:35 AM30 °FPassing clouds.No wind100%30.32 "Hg7 mi
2:15 AM30 °FPassing clouds.No wind100%30.32 "Hg7 mi
1:55 AM30 °FIce fog.No wind100%30.31 "Hg5 mi
1:35 AM30 °FMostly cloudy.No wind100%30.30 "Hg7 mi
1:15 AM30 °FPassing clouds.No wind100%30.30 "Hg7 mi
12:55 AM30 °FPassing clouds.No wind100%30.29 "Hg7 mi
12:35 AM30 °FIce fog.No wind100%30.29 "Hg5 mi
12:15 AM32 °FClear.No wind100%30.28 "Hg7 mi
11:55 PM
Wed, Feb 10
32 °FClear.3 mph100%30.28 "Hg7 mi
11:35 PM32 °FClear.3 mph100%30.28 "Hg10 mi
11:15 PM32 °FClear.No wind100%30.28 "Hg10 mi
10:55 PM32 °FClear.No wind100%30.28 "Hg10 mi
10:35 PM32 °FClear.No wind100%30.28 "Hg10 mi
10:15 PM32 °FClear.No wind100%30.28 "Hg10 mi
9:55 PM32 °FClear.No wind100%30.28 "Hg10 mi
9:35 PM32 °FClear.No wind100%30.27 "Hg10 mi
9:15 PM32 °FClear.No wind100%30.27 "Hg7 mi
8:55 PM32 °FClear.No wind100%30.26 "Hg10 mi
8:35 PM32 °FClear.No wind100%30.26 "Hg10 mi
8:15 PM32 °FClear.No wind100%30.25 "Hg10 mi
7:55 PM32 °FClear.No wind100%30.25 "Hg10 mi
7:35 PM32 °FClear.No wind100%30.25 "Hg10 mi
7:15 PM32 °FClear.No wind100%30.26 "Hg10 mi
6:55 PM32 °FPassing clouds.No wind100%30.25 "Hg10 mi
6:15 PM34 °FPassing clouds.No wind100%30.25 "Hg10 mi
5:35 PM36 °FPassing clouds.No wind93%30.25 "Hg10 mi
5:15 PM36 °FMostly cloudy.3 mph93%30.25 "Hg10 mi
Weather by CustomWeather, © 2016

See weather overviewHow to use our weather pages